ENY876 KORD-KEVV

Flight info

Callsign ENY876
Flight time 0h 41m
Altitude 33000
Route DENNT DARCY DREGS DONVE
Aircraft E170/M-SDE3GILORVW/S

Departure

Time 2026-04-21 13:57
Airport Chicago O'Hare International Airport (KORD)

Arrival

Time 2026-04-21 14:38
Airport Evansville Regional Airport (KEVV)
Time Latitude Longitude Altitude Speed Heading
2026-04-21 13:41 41.97659 -87.89770 667 ft 0 kts 14°
2026-04-21 13:49 41.97658 -87.89770 668 ft 1 kts 14°
2026-04-21 13:49 41.97635 -87.89782 668 ft 4 kts 31°
2026-04-21 13:50 41.97618 -87.89807 668 ft 4 kts 72°
2026-04-21 13:50 41.97621 -87.89838 668 ft 4 kts 110°
2026-04-21 13:50 41.97625 -87.89854 668 ft 0 kts 110°
2026-04-21 13:51 41.97622 -87.89841 668 ft 6 kts 109°
2026-04-21 13:52 41.97595 -87.89735 668 ft 15 kts 109°
2026-04-21 13:52 41.97557 -87.89595 667 ft 17 kts 110°
2026-04-21 13:52 41.97469 -87.89519 668 ft 16 kts 180°
2026-04-21 13:52 41.97359 -87.89571 668 ft 18 kts 217°
2026-04-21 13:53 41.97305 -87.89606 665 ft 4 kts 172°
2026-04-21 13:53 41.97266 -87.89596 667 ft 7 kts 169°
2026-04-21 13:53 41.97213 -87.89562 668 ft 10 kts 131°
2026-04-21 13:53 41.97200 -87.89447 668 ft 16 kts 92°
2026-04-21 13:54 41.97200 -87.89279 668 ft 19 kts 90°
2026-04-21 13:54 41.97196 -87.89089 668 ft 22 kts 90°
2026-04-21 13:54 41.97198 -87.88881 668 ft 23 kts 90°
2026-04-21 13:54 41.97196 -87.88659 668 ft 25 kts 90°
2026-04-21 13:55 41.97197 -87.88424 668 ft 26 kts 92°
2026-04-21 13:55 41.97200 -87.88198 668 ft 22 kts 89°
2026-04-21 13:55 41.97167 -87.88041 666 ft 16 kts 150°
2026-04-21 13:55 41.97054 -87.88031 668 ft 17 kts 180°
2026-04-21 13:56 41.96965 -87.88018 666 ft 2 kts 194°
2026-04-21 13:56 41.96963 -87.88021 668 ft 1 kts 221°
2026-04-21 13:56 41.96787 -87.88237 666 ft 75 kts 225°
2026-04-21 13:56 41.96192 -87.88923 669 ft 148 kts 221°
2026-04-21 13:57 41.95399 -87.89862 1504 ft 143 kts 220°
2026-04-21 13:57 41.94627 -87.90596 2520 ft 141 kts 201°
2026-04-21 13:57 41.93565 -87.90662 3021 ft 165 kts 174°
2026-04-21 13:57 41.92421 -87.90252 3654 ft 177 kts 175°
2026-04-21 13:58 41.91123 -87.89824 4098 ft 205 kts 174°
2026-04-21 13:58 41.89642 -87.89333 4611 ft 234 kts 174°
2026-04-21 13:58 41.87981 -87.88782 5306 ft 259 kts 174°
2026-04-21 13:58 41.86178 -87.88186 6146 ft 275 kts 174°
2026-04-21 13:59 41.84286 -87.87562 7147 ft 284 kts 173°
2026-04-21 13:59 41.82385 -87.86923 8236 ft 288 kts 172°
2026-04-21 13:59 41.80413 -87.86272 9239 ft 295 kts 172°
2026-04-21 13:59 41.78400 -87.85611 10283 ft 300 kts 172°
2026-04-21 14:00 41.76297 -87.84915 10914 ft 321 kts 171°
2026-04-21 14:00 41.74077 -87.84156 11543 ft 338 kts 171°
2026-04-21 14:00 41.71747 -87.83348 12133 ft 353 kts 170°
2026-04-21 14:00 41.69329 -87.82497 12841 ft 364 kts 170°
2026-04-21 14:01 41.66858 -87.81630 13691 ft 370 kts 170°
2026-04-21 14:01 41.64348 -87.80751 14543 ft 376 kts 170°
2026-04-21 14:01 41.61810 -87.79853 15434 ft 381 kts 170°
2026-04-21 14:01 41.59227 -87.78936 16294 ft 386 kts 170°
2026-04-21 14:02 41.56617 -87.77995 17063 ft 391 kts 170°
2026-04-21 14:02 41.53971 -87.77029 17806 ft 397 kts 170°
2026-04-21 14:02 41.51288 -87.76045 18517 ft 403 kts 170°
2026-04-21 14:03 41.45821 -87.74014 19941 ft 413 kts 169°
2026-04-21 14:03 41.43037 -87.72969 20629 ft 417 kts 170°
2026-04-21 14:03 41.40195 -87.72399 21166 ft 414 kts 183°
2026-04-21 14:03 41.37307 -87.72377 21788 ft 415 kts 187°
2026-04-21 14:04 41.34402 -87.72429 22350 ft 420 kts 187°
2026-04-21 14:04 41.31462 -87.72463 22885 ft 425 kts 186°
2026-04-21 14:04 41.28496 -87.72488 23405 ft 429 kts 186°
2026-04-21 14:04 41.25498 -87.72508 23941 ft 433 kts 186°
2026-04-21 14:05 41.22472 -87.72528 24484 ft 437 kts 186°
2026-04-21 14:05 41.19419 -87.72462 25019 ft 443 kts 182°
2026-04-21 14:05 41.16325 -87.72079 25527 ft 450 kts 179°
2026-04-21 14:05 41.13216 -87.71643 26192 ft 448 kts 180°
2026-04-21 14:06 41.10121 -87.71209 26939 ft 446 kts 180°
2026-04-21 14:06 41.07076 -87.70803 27584 ft 444 kts 180°
2026-04-21 14:06 41.04006 -87.70393 28195 ft 443 kts 180°
2026-04-21 14:06 41.00936 -87.69986 28755 ft 443 kts 180°
2026-04-21 14:07 40.97875 -87.69581 29333 ft 442 kts 180°
2026-04-21 14:07 40.94818 -87.69176 29831 ft 441 kts 180°
2026-04-21 14:07 40.91764 -87.68773 30376 ft 441 kts 180°
2026-04-21 14:07 40.88714 -87.68372 30873 ft 440 kts 180°
2026-04-21 14:08 40.85672 -87.67969 31369 ft 439 kts 181°
2026-04-21 14:08 40.82636 -87.67570 31829 ft 438 kts 181°
2026-04-21 14:08 40.79607 -87.67172 32307 ft 437 kts 181°
2026-04-21 14:08 40.76579 -87.66777 32698 ft 438 kts 181°
2026-04-21 14:09 40.73552 -87.66380 33139 ft 436 kts 181°
2026-04-21 14:09 40.67548 -87.65592 33163 ft 432 kts 181°
2026-04-21 14:10 40.61603 -87.64813 33158 ft 431 kts 181°
2026-04-21 14:10 40.55619 -87.64030 33160 ft 430 kts 181°
2026-04-21 14:11 40.49721 -87.63261 33163 ft 429 kts 181°
2026-04-21 14:11 40.43761 -87.62484 33170 ft 430 kts 181°
2026-04-21 14:12 40.37812 -87.61712 33166 ft 429 kts 181°
2026-04-21 14:12 40.31873 -87.60969 33173 ft 426 kts 185°
2026-04-21 14:13 40.25962 -87.61148 33230 ft 422 kts 190°
2026-04-21 14:13 40.20135 -87.61450 33244 ft 422 kts 190°
2026-04-21 14:14 40.14272 -87.61746 33181 ft 421 kts 190°
2026-04-21 14:14 40.08425 -87.62034 33174 ft 420 kts 190°
2026-04-21 14:15 40.02577 -87.62320 33173 ft 420 kts 190°
2026-04-21 14:15 39.96720 -87.62528 33187 ft 425 kts 185°
2026-04-21 14:16 39.90803 -87.62138 33191 ft 425 kts 185°
2026-04-21 14:16 39.84884 -87.61780 33191 ft 425 kts 185°
2026-04-21 14:17 39.78971 -87.61444 33202 ft 425 kts 185°
2026-04-21 14:17 39.73028 -87.61119 32762 ft 430 kts 185°
2026-04-21 14:17 39.70052 -87.60953 32498 ft 429 kts 185°
2026-04-21 14:18 39.67047 -87.60790 31822 ft 434 kts 185°
2026-04-21 14:18 39.64041 -87.60624 31251 ft 433 kts 185°
2026-04-21 14:18 39.61032 -87.60461 30652 ft 432 kts 184°
2026-04-21 14:18 39.58029 -87.60298 30074 ft 431 kts 185°
2026-04-21 14:19 39.55038 -87.60135 29504 ft 431 kts 184°
2026-04-21 14:19 39.52042 -87.59972 28943 ft 431 kts 184°
2026-04-21 14:19 39.49047 -87.59810 28355 ft 432 kts 184°
2026-04-21 14:19 39.46034 -87.59647 27787 ft 433 kts 184°
2026-04-21 14:20 39.43058 -87.59487 27218 ft 434 kts 184°
2026-04-21 14:20 39.40034 -87.59328 26644 ft 435 kts 184°
2026-04-21 14:20 39.36997 -87.59164 26068 ft 438 kts 184°
2026-04-21 14:20 39.33949 -87.58997 25471 ft 439 kts 184°
2026-04-21 14:21 39.30901 -87.58831 24889 ft 438 kts 184°
2026-04-21 14:21 39.27866 -87.58665 24306 ft 434 kts 184°
2026-04-21 14:21 39.24866 -87.58502 23731 ft 430 kts 184°
2026-04-21 14:21 39.21894 -87.58338 23157 ft 425 kts 184°
2026-04-21 14:22 39.18956 -87.58176 22602 ft 420 kts 184°
2026-04-21 14:22 39.16049 -87.58019 22008 ft 416 kts 183°
2026-04-21 14:22 39.13179 -87.57863 21464 ft 411 kts 183°
2026-04-21 14:22 39.10340 -87.57709 20931 ft 406 kts 183°
2026-04-21 14:23 39.07529 -87.57558 20372 ft 403 kts 183°
2026-04-21 14:23 39.04743 -87.57407 19845 ft 399 kts 183°
2026-04-21 14:23 39.01964 -87.57258 18937 ft 402 kts 183°
2026-04-21 14:23 38.99222 -87.57108 18515 ft 389 kts 183°
2026-04-21 14:24 38.96534 -87.56963 17980 ft 384 kts 183°
2026-04-21 14:24 38.93887 -87.56820 17492 ft 379 kts 183°
2026-04-21 14:24 38.91262 -87.56680 16992 ft 376 kts 182°
2026-04-21 14:24 38.88653 -87.56540 16493 ft 374 kts 182°
2026-04-21 14:25 38.86066 -87.56402 16002 ft 371 kts 182°
2026-04-21 14:25 38.83495 -87.56264 15511 ft 368 kts 182°
2026-04-21 14:25 38.80954 -87.56127 15027 ft 365 kts 182°
2026-04-21 14:25 38.78428 -87.55991 14545 ft 359 kts 181°
2026-04-21 14:26 38.75962 -87.55856 14073 ft 350 kts 181°
2026-04-21 14:26 38.73551 -87.55727 13600 ft 343 kts 181°
2026-04-21 14:26 38.71188 -87.55601 13154 ft 336 kts 181°
2026-04-21 14:26 38.68904 -87.55477 12713 ft 330 kts 181°
2026-04-21 14:27 38.66637 -87.55357 12277 ft 320 kts 181°
2026-04-21 14:27 38.64458 -87.55238 11847 ft 306 kts 181°
2026-04-21 14:27 38.62373 -87.55124 11453 ft 296 kts 181°
2026-04-21 14:27 38.60324 -87.55015 11094 ft 293 kts 181°
2026-04-21 14:28 38.58284 -87.54908 10689 ft 294 kts 181°
2026-04-21 14:28 38.56247 -87.54799 10294 ft 292 kts 181°
2026-04-21 14:28 38.54222 -87.54691 9908 ft 290 kts 181°
2026-04-21 14:28 38.52213 -87.54581 9515 ft 288 kts 182°
2026-04-21 14:29 38.50211 -87.54474 9152 ft 287 kts 182°
2026-04-21 14:29 38.48225 -87.54366 8774 ft 285 kts 182°
2026-04-21 14:29 38.46248 -87.54263 8403 ft 283 kts 182°
2026-04-21 14:29 38.44285 -87.54160 8009 ft 282 kts 182°
2026-04-21 14:30 38.42992 -87.54089 7748 ft 279 kts 182°
2026-04-21 14:30 38.41066 -87.53988 7399 ft 277 kts 182°
2026-04-21 14:30 38.38527 -87.53850 6910 ft 275 kts 182°
2026-04-21 14:30 38.36620 -87.53752 6563 ft 272 kts 182°
2026-04-21 14:31 38.34732 -87.53657 6191 ft 271 kts 182°
2026-04-21 14:31 38.32858 -87.53553 5835 ft 268 kts 182°
2026-04-21 14:31 38.31600 -87.53488 5580 ft 267 kts 182°
2026-04-21 14:31 38.29153 -87.53351 5123 ft 264 kts 182°
2026-04-21 14:32 38.27917 -87.53284 4896 ft 262 kts 182°
2026-04-21 14:32 38.26133 -87.53188 4557 ft 258 kts 182°
2026-04-21 14:32 38.24342 -87.53096 4197 ft 256 kts 182°
2026-04-21 14:32 38.22581 -87.53017 3677 ft 248 kts 184°
2026-04-21 14:33 38.20891 -87.53043 3178 ft 235 kts 186°
2026-04-21 14:33 38.19294 -87.53073 2648 ft 219 kts 185°
2026-04-21 14:33 38.17823 -87.53099 2121 ft 207 kts 184°
2026-04-21 14:33 38.16492 -87.53121 2152 ft 174 kts 184°
2026-04-21 14:34 38.15417 -87.53129 2798 ft 141 kts 186°
2026-04-21 14:34 38.14529 -87.53135 3635 ft 123 kts 191°
2026-04-21 14:34 38.13577 -87.53139 3629 ft 136 kts 186°
2026-04-21 14:34 38.12679 -87.53106 3440 ft 123 kts 190°
2026-04-21 14:35 38.11864 -87.53122 3199 ft 117 kts 189°
2026-04-21 14:35 38.11023 -87.53074 2784 ft 122 kts 186°
2026-04-21 14:35 38.10206 -87.53039 2579 ft 114 kts 185°
2026-04-21 14:35 38.09377 -87.52988 2173 ft 123 kts 184°
2026-04-21 14:36 38.08541 -87.52967 1902 ft 120 kts 186°
2026-04-21 14:36 38.07686 -87.53023 1794 ft 120 kts 188°
2026-04-21 14:36 38.06833 -87.53225 1335 ft 129 kts 194°
2026-04-21 14:36 38.05973 -87.53372 1057 ft 122 kts 186°
2026-04-21 14:37 38.05113 -87.53384 666 ft 125 kts 182°
2026-04-21 14:37 38.04257 -87.53411 403 ft 118 kts 182°
2026-04-21 14:37 38.03600 -87.53432 395 ft 60 kts 182°
2026-04-21 14:37 38.03242 -87.53446 383 ft 50 kts 181°
2026-04-21 14:38 38.02968 -87.53446 373 ft 14 kts 181°